DWI400 MDSD-TNCM

Flight info

Callsign DWI400
Flight time 1h 0m
Altitude 35000
Route MELLA2J MELLA G633 MAZ RTE12 JOSHE DCT STIIV L577 GOUDA DCT PJM
Aircraft A320/M-SDE3FGHIRWY/LB1

Departure

Time 2026-05-07 02:11
Airport Las Américas International Airport (MDSD)

Arrival

Time 2026-05-07 03:11
Airport Princess Juliana International Airport (TNCM)
Time Latitude Longitude Altitude Speed Heading
2026-05-07 02:00 18.43160 -69.67569 72 ft 0 kts 244°
2026-05-07 02:01 18.43164 -69.67561 72 ft 3 kts 244°
2026-05-07 02:02 18.43173 -69.67542 72 ft 3 kts 244°
2026-05-07 02:02 18.43182 -69.67523 72 ft 3 kts 244°
2026-05-07 02:02 18.43189 -69.67504 72 ft 3 kts 265°
2026-05-07 02:02 18.43187 -69.67490 72 ft 2 kts 331°
2026-05-07 02:03 18.43177 -69.67485 72 ft 2 kts 340°
2026-05-07 02:03 18.43158 -69.67478 72 ft 3 kts 340°
2026-05-07 02:03 18.43139 -69.67471 72 ft 2 kts 340°
2026-05-07 02:03 18.43132 -69.67468 72 ft 0 kts 340°
2026-05-07 02:06 18.43134 -69.67469 72 ft 1 kts 341°
2026-05-07 02:06 18.43170 -69.67482 72 ft 13 kts 341°
2026-05-07 02:06 18.43271 -69.67519 72 ft 10 kts 341°
2026-05-07 02:07 18.43338 -69.67535 72 ft 10 kts 14°
2026-05-07 02:07 18.43450 -69.67426 72 ft 13 kts 46°
2026-05-07 02:07 18.43516 -69.67352 72 ft 15 kts 46°
2026-05-07 02:08 18.43608 -69.67323 72 ft 15 kts 334°
2026-05-07 02:08 18.43713 -69.67368 72 ft 17 kts 338°
2026-05-07 02:08 18.43835 -69.67409 72 ft 19 kts 343°
2026-05-07 02:08 18.43969 -69.67457 72 ft 21 kts 341°
2026-05-07 02:09 18.44114 -69.67510 72 ft 23 kts 341°
2026-05-07 02:09 18.44247 -69.67552 72 ft 17 kts
2026-05-07 02:09 18.44347 -69.67487 72 ft 18 kts 58°
2026-05-07 02:09 18.44369 -69.67414 72 ft 8 kts 114°
2026-05-07 02:10 18.44319 -69.67390 72 ft 10 kts 161°
2026-05-07 02:10 18.44138 -69.67321 72 ft 61 kts 161°
2026-05-07 02:10 18.43487 -69.67085 73 ft 135 kts 160°
2026-05-07 02:10 18.42429 -69.66704 258 ft 173 kts 161°
2026-05-07 02:11 18.41281 -69.66286 967 ft 178 kts 160°
2026-05-07 02:11 18.40078 -69.65830 1448 ft 189 kts 160°
2026-05-07 02:11 18.38795 -69.65352 1810 ft 202 kts 161°
2026-05-07 02:11 18.37458 -69.64748 2155 ft 213 kts 153°
2026-05-07 02:12 18.36139 -69.64080 2576 ft 211 kts 155°
2026-05-07 02:12 18.34870 -69.63268 3067 ft 220 kts 135°
2026-05-07 02:12 18.34123 -69.61800 3387 ft 239 kts 99°
2026-05-07 02:12 18.34079 -69.60011 3901 ft 252 kts 86°
2026-05-07 02:13 18.34201 -69.58150 4458 ft 264 kts 84°
2026-05-07 02:13 18.34275 -69.56191 5159 ft 272 kts 89°
2026-05-07 02:13 18.34132 -69.54171 5839 ft 281 kts 99°
2026-05-07 02:13 18.33635 -69.52154 6514 ft 288 kts 109°
2026-05-07 02:14 18.32995 -69.50142 7219 ft 293 kts 109°
2026-05-07 02:14 18.32389 -69.48084 7946 ft 296 kts 107°
2026-05-07 02:14 18.31846 -69.45974 8668 ft 300 kts 105°
2026-05-07 02:14 18.31316 -69.43836 9369 ft 303 kts 106°
2026-05-07 02:15 18.30807 -69.41668 10054 ft 307 kts 100°
2026-05-07 02:15 18.30539 -69.39408 10583 ft 317 kts 95°
2026-05-07 02:15 18.30372 -69.37031 10861 ft 335 kts 94°
2026-05-07 02:15 18.30232 -69.34544 11083 ft 353 kts 94°
2026-05-07 02:16 18.30073 -69.31902 11298 ft 370 kts 94°
2026-05-07 02:16 18.29880 -69.29143 11513 ft 385 kts 95°
2026-05-07 02:16 18.29662 -69.26288 11751 ft 399 kts 95°
2026-05-07 02:16 18.29435 -69.23323 11953 ft 412 kts 95°
2026-05-07 02:17 18.29207 -69.20273 12189 ft 423 kts 95°
2026-05-07 02:17 18.28981 -69.17182 12653 ft 426 kts 95°
2026-05-07 02:17 18.28753 -69.14064 13123 ft 429 kts 95°
2026-05-07 02:17 18.28524 -69.10924 13581 ft 432 kts 95°
2026-05-07 02:18 18.28287 -69.07758 14030 ft 434 kts 95°
2026-05-07 02:18 18.28131 -69.05652 14317 ft 436 kts 95°
2026-05-07 02:18 18.27893 -69.02455 14746 ft 439 kts 95°
2026-05-07 02:18 18.27654 -68.99249 15166 ft 442 kts 95°
2026-05-07 02:19 18.27334 -68.94945 15707 ft 445 kts 95°
2026-05-07 02:19 18.27169 -68.92747 15978 ft 447 kts 95°
2026-05-07 02:19 18.26922 -68.89480 16369 ft 450 kts 95°
2026-05-07 02:19 18.26674 -68.86187 16753 ft 452 kts 95°
2026-05-07 02:20 18.26428 -68.82918 17127 ft 455 kts 95°
2026-05-07 02:20 18.26175 -68.79552 17499 ft 457 kts 95°
2026-05-07 02:20 18.25924 -68.76210 17859 ft 460 kts 95°
2026-05-07 02:20 18.25670 -68.72891 18211 ft 462 kts 95°
2026-05-07 02:21 18.25408 -68.69470 18566 ft 465 kts 95°
2026-05-07 02:21 18.25152 -68.66113 18902 ft 467 kts 95°
2026-05-07 02:21 18.24892 -68.62696 19241 ft 469 kts 95°
2026-05-07 02:21 18.24628 -68.59282 19573 ft 472 kts 95°
2026-05-07 02:22 18.24363 -68.55827 19898 ft 474 kts 95°
2026-05-07 02:22 18.24097 -68.52350 20223 ft 476 kts 95°
2026-05-07 02:22 18.23831 -68.48864 20540 ft 478 kts 95°
2026-05-07 02:22 18.23563 -68.45375 20844 ft 480 kts 95°
2026-05-07 02:23 18.23291 -68.41866 21148 ft 482 kts 95°
2026-05-07 02:23 18.23013 -68.38344 21441 ft 484 kts 95°
2026-05-07 02:23 18.22734 -68.34842 21737 ft 486 kts 95°
2026-05-07 02:23 18.22451 -68.31294 22025 ft 488 kts 95°
2026-05-07 02:24 18.22173 -68.27740 22308 ft 490 kts 95°
2026-05-07 02:24 18.21897 -68.24141 22584 ft 492 kts 95°
2026-05-07 02:24 18.21621 -68.20546 22851 ft 494 kts 95°
2026-05-07 02:24 18.21339 -68.16947 23112 ft 496 kts 95°
2026-05-07 02:25 18.21053 -68.13323 23366 ft 498 kts 95°
2026-05-07 02:25 18.20764 -68.09692 23614 ft 499 kts 95°
2026-05-07 02:25 18.20474 -68.06050 23851 ft 501 kts 95°
2026-05-07 02:25 18.20180 -68.02393 24080 ft 503 kts 95°
2026-05-07 02:26 18.20068 -67.98717 24294 ft 504 kts 88°
2026-05-07 02:26 18.20260 -67.95020 24512 ft 506 kts 86°
2026-05-07 02:26 18.20525 -67.91326 24712 ft 507 kts 85°
2026-05-07 02:26 18.20824 -67.87638 24960 ft 507 kts 85°
2026-05-07 02:27 18.21114 -67.83934 25231 ft 507 kts 85°
2026-05-07 02:27 18.21372 -67.80239 25493 ft 506 kts 86°
2026-05-07 02:27 18.21602 -67.76552 25758 ft 506 kts 86°
2026-05-07 02:27 18.21828 -67.72857 26025 ft 505 kts 86°
2026-05-07 02:28 18.22066 -67.69172 26291 ft 505 kts 86°
2026-05-07 02:28 18.22313 -67.65544 26560 ft 504 kts 85°
2026-05-07 02:28 18.22570 -67.61863 26833 ft 504 kts 85°
2026-05-07 02:28 18.22824 -67.58194 27114 ft 503 kts 85°
2026-05-07 02:29 18.23067 -67.54525 27393 ft 502 kts 86°
2026-05-07 02:29 18.23306 -67.50857 27672 ft 502 kts 86°
2026-05-07 02:29 18.23542 -67.47198 27937 ft 502 kts 86°
2026-05-07 02:29 18.23781 -67.43535 28003 ft 501 kts 86°
2026-05-07 02:30 18.24268 -67.36206 28004 ft 501 kts 86°
2026-05-07 02:30 18.24745 -67.28898 28005 ft 501 kts 86°
2026-05-07 02:31 18.25213 -67.21626 28005 ft 501 kts 86°
2026-05-07 02:31 18.25614 -67.14300 28001 ft 501 kts 90°
2026-05-07 02:32 18.25507 -67.06965 28005 ft 501 kts 91°
2026-05-07 02:32 18.25309 -66.99634 28005 ft 501 kts 91°
2026-05-07 02:33 18.25157 -66.92311 28005 ft 501 kts 91°
2026-05-07 02:33 18.25016 -66.84978 28005 ft 501 kts 91°
2026-05-07 02:34 18.24851 -66.77628 28005 ft 501 kts 91°
2026-05-07 02:34 18.24691 -66.70336 28005 ft 501 kts 91°
2026-05-07 02:35 18.24522 -66.63006 28005 ft 501 kts 91°
2026-05-07 02:35 18.24354 -66.55675 28005 ft 501 kts 91°
2026-05-07 02:36 18.24182 -66.48344 28005 ft 501 kts 91°
2026-05-07 02:36 18.23905 -66.41020 28005 ft 501 kts 93°
2026-05-07 02:37 18.23557 -66.33699 28005 ft 501 kts 92°
2026-05-07 02:37 18.23276 -66.26364 28005 ft 501 kts 92°
2026-05-07 02:38 18.22998 -66.19079 28005 ft 501 kts 92°
2026-05-07 02:38 18.22689 -66.11758 28005 ft 501 kts 92°
2026-05-07 02:39 18.22378 -66.04419 28005 ft 501 kts 92°
2026-05-07 02:39 18.22079 -65.97094 28005 ft 501 kts 92°
2026-05-07 02:40 18.21773 -65.89814 28005 ft 501 kts 92°
2026-05-07 02:40 18.21456 -65.82497 28005 ft 501 kts 92°
2026-05-07 02:41 18.21142 -65.75178 28005 ft 501 kts 92°
2026-05-07 02:41 18.20833 -65.67853 28005 ft 501 kts 92°
2026-05-07 02:42 18.20515 -65.60524 28005 ft 501 kts 93°
2026-05-07 02:42 18.20185 -65.53214 28005 ft 501 kts 93°
2026-05-07 02:43 18.19864 -65.45889 28005 ft 501 kts 92°
2026-05-07 02:43 18.19543 -65.38614 28005 ft 501 kts 93°
2026-05-07 02:44 18.19208 -65.31283 28005 ft 501 kts 93°
2026-05-07 02:44 18.18875 -65.23963 28005 ft 501 kts 93°
2026-05-07 02:45 18.18546 -65.16643 28005 ft 501 kts 93°
2026-05-07 02:45 18.18201 -65.09331 28005 ft 501 kts 93°
2026-05-07 02:46 18.17861 -65.02062 27862 ft 494 kts 93°
2026-05-07 02:46 18.17677 -64.98479 27319 ft 486 kts 95°
2026-05-07 02:46 18.17207 -64.94976 26354 ft 482 kts 100°
2026-05-07 02:47 18.16595 -64.91502 25173 ft 485 kts 102°
2026-05-07 02:47 18.15917 -64.88005 24203 ft 490 kts 102°
2026-05-07 02:47 18.15219 -64.84474 23545 ft 492 kts 102°
2026-05-07 02:47 18.14556 -64.80980 23196 ft 495 kts 102°
2026-05-07 02:48 18.13908 -64.77380 23081 ft 496 kts 101°
2026-05-07 02:48 18.13306 -64.73928 22926 ft 474 kts 101°
2026-05-07 02:48 18.12715 -64.70600 22649 ft 453 kts 101°
2026-05-07 02:48 18.12133 -64.67412 22354 ft 435 kts 102°
2026-05-07 02:49 18.11561 -64.64346 22019 ft 420 kts 102°
2026-05-07 02:49 18.11014 -64.61390 21728 ft 405 kts 102°
2026-05-07 02:49 18.10487 -64.58525 21474 ft 391 kts 102°
2026-05-07 02:49 18.09983 -64.55774 21277 ft 375 kts 102°
2026-05-07 02:50 18.09498 -64.53115 20879 ft 368 kts 102°
2026-05-07 02:50 18.09011 -64.50462 20143 ft 371 kts 102°
2026-05-07 02:50 18.08516 -64.47802 19140 ft 381 kts 102°
2026-05-07 02:50 18.08005 -64.45045 18308 ft 385 kts 102°
2026-05-07 02:51 18.07499 -64.42305 17709 ft 381 kts 102°
2026-05-07 02:51 18.06993 -64.39562 16893 ft 383 kts 102°
2026-05-07 02:51 18.06488 -64.36816 16104 ft 383 kts 102°
2026-05-07 02:51 18.05977 -64.34060 15289 ft 384 kts 102°
2026-05-07 02:52 18.05466 -64.31306 14451 ft 385 kts 102°
2026-05-07 02:52 18.04952 -64.28543 13671 ft 384 kts 102°
2026-05-07 02:52 18.04448 -64.25828 13223 ft 373 kts 102°
2026-05-07 02:52 18.03965 -64.23214 12998 ft 356 kts 102°
2026-05-07 02:53 18.03504 -64.20708 12762 ft 342 kts 102°
2026-05-07 02:53 18.03061 -64.18307 12551 ft 328 kts 102°
2026-05-07 02:53 18.02633 -64.16006 12373 ft 315 kts 102°
2026-05-07 02:53 18.02222 -64.13799 12211 ft 301 kts 102°
2026-05-07 02:54 18.01829 -64.11687 12037 ft 288 kts 102°
2026-05-07 02:54 18.01453 -64.09665 11695 ft 283 kts 102°
2026-05-07 02:54 18.01076 -64.07642 11288 ft 281 kts 102°
2026-05-07 02:54 18.00699 -64.05631 10878 ft 280 kts 102°
2026-05-07 02:55 18.00325 -64.03634 10470 ft 278 kts 102°
2026-05-07 02:55 17.99957 -64.01649 10064 ft 276 kts 102°
2026-05-07 02:55 17.99590 -63.99672 9657 ft 274 kts 102°
2026-05-07 02:55 17.99219 -63.97712 9248 ft 273 kts 102°
2026-05-07 02:56 17.98851 -63.95767 8839 ft 271 kts 102°
2026-05-07 02:56 17.98491 -63.93826 8426 ft 269 kts 102°
2026-05-07 02:56 17.98133 -63.91900 8011 ft 268 kts 102°
2026-05-07 02:56 17.97774 -63.89992 7596 ft 266 kts 102°
2026-05-07 02:57 17.97460 -63.88081 7172 ft 265 kts 94°
2026-05-07 02:57 17.97553 -63.86165 6873 ft 262 kts 81°
2026-05-07 02:57 17.97873 -63.84273 6858 ft 263 kts 79°
2026-05-07 02:57 17.98163 -63.82374 6859 ft 263 kts 82°
2026-05-07 02:58 17.98372 -63.80470 6860 ft 263 kts 83°
2026-05-07 02:58 17.98566 -63.78579 6860 ft 263 kts 83°
2026-05-07 02:58 17.98803 -63.76675 6861 ft 262 kts 81°
2026-05-07 02:58 17.99054 -63.74791 6802 ft 256 kts 82°
2026-05-07 02:59 17.99276 -63.72957 6624 ft 251 kts 82°
2026-05-07 02:59 17.99491 -63.71147 6410 ft 247 kts 82°
2026-05-07 02:59 17.99706 -63.69394 6291 ft 239 kts 81°
2026-05-07 02:59 17.99916 -63.67677 6076 ft 235 kts 81°
2026-05-07 03:00 18.00120 -63.65983 5846 ft 233 kts 81°
2026-05-07 03:00 18.00320 -63.64306 5618 ft 230 kts 81°
2026-05-07 03:00 18.00520 -63.62651 5390 ft 227 kts 81°
2026-05-07 03:00 18.00714 -63.61027 5171 ft 222 kts 81°
2026-05-07 03:01 18.00908 -63.59420 4871 ft 221 kts 81°
2026-05-07 03:01 18.01102 -63.57827 4605 ft 218 kts 81°
2026-05-07 03:01 18.01293 -63.56254 4326 ft 216 kts 81°
2026-05-07 03:01 18.01481 -63.54697 4048 ft 214 kts 82°
2026-05-07 03:02 18.01665 -63.53181 3855 ft 211 kts 82°
2026-05-07 03:02 18.01845 -63.51673 3847 ft 203 kts 84°
2026-05-07 03:02 18.02000 -63.50211 3856 ft 200 kts 82°
2026-05-07 03:02 18.02190 -63.48759 3858 ft 200 kts 81°
2026-05-07 03:03 18.02377 -63.47310 3859 ft 200 kts 82°
2026-05-07 03:03 18.02549 -63.45852 3859 ft 200 kts 82°
2026-05-07 03:03 18.02718 -63.44400 3860 ft 200 kts 82°
2026-05-07 03:03 18.02894 -63.42945 3860 ft 200 kts 82°
2026-05-07 03:04 18.03071 -63.41493 3861 ft 200 kts 82°
2026-05-07 03:04 18.03245 -63.40039 3861 ft 200 kts 82°
2026-05-07 03:04 18.03417 -63.38590 3861 ft 200 kts 82°
2026-05-07 03:04 18.03591 -63.37138 3867 ft 198 kts 82°
2026-05-07 03:05 18.03761 -63.35721 3712 ft 193 kts 82°
2026-05-07 03:05 18.03927 -63.34335 3454 ft 190 kts 82°
2026-05-07 03:05 18.04037 -63.33423 3273 ft 189 kts 83°
2026-05-07 03:05 18.04198 -63.32072 3115 ft 180 kts 83°
2026-05-07 03:06 18.04347 -63.30828 3000 ft 164 kts 83°
2026-05-07 03:06 18.04534 -63.29281 2612 ft 158 kts 83°
2026-05-07 03:06 18.04624 -63.28526 2402 ft 152 kts 83°
2026-05-07 03:06 18.04759 -63.27404 1897 ft 157 kts 82°
2026-05-07 03:07 18.05064 -63.26300 1664 ft 159 kts 69°
2026-05-07 03:07 18.05158 -63.25159 1637 ft 161 kts 106°
2026-05-07 03:07 18.04549 -63.24180 1668 ft 160 kts 130°
2026-05-07 03:07 18.03854 -63.23305 1527 ft 157 kts 129°
2026-05-07 03:08 18.03176 -63.22379 1433 ft 159 kts 127°
2026-05-07 03:08 18.02622 -63.21390 1429 ft 158 kts 109°
2026-05-07 03:08 18.02613 -63.20261 1451 ft 158 kts 80°
2026-05-07 03:08 18.02811 -63.19139 1458 ft 157 kts 80°
2026-05-07 03:09 18.02978 -63.18012 1452 ft 153 kts 82°
2026-05-07 03:09 18.03129 -63.16897 1386 ft 156 kts 82°
2026-05-07 03:09 18.03331 -63.15788 1145 ft 153 kts 81°
2026-05-07 03:09 18.03535 -63.14702 828 ft 152 kts 81°
2026-05-07 03:10 18.03706 -63.13605 423 ft 150 kts 84°
2026-05-07 03:10 18.03855 -63.12529 149 ft 148 kts 83°
2026-05-07 03:10 18.04006 -63.11460 29 ft 142 kts 83°
2026-05-07 03:10 18.04115 -63.10679 27 ft 64 kts 83°
2026-05-07 03:11 18.04128 -63.10547 27 ft 7 kts 90°
2026-05-07 03:11 18.04141 -63.10549 27 ft 3 kts 265°
2026-05-07 03:11 18.04134 -63.10598 27 ft 13 kts 261°
2026-05-07 03:11 18.04113 -63.10730 27 ft 23 kts 260°
2026-05-07 03:12 18.04081 -63.10935 27 ft 33 kts 261°
2026-05-07 03:12 18.04053 -63.11123 27 ft 9 kts 263°
2026-05-07 03:12 18.04104 -63.11170 27 ft 16 kts 350°
2026-05-07 03:12 18.04137 -63.11220 27 ft 10 kts 260°
2026-05-07 03:13 18.04130 -63.11294 27 ft 9 kts 295°
2026-05-07 03:13 18.04191 -63.11319 27 ft 11 kts 351°
2026-05-07 03:13 18.04271 -63.11309 27 ft 13 kts 29°
2026-05-07 03:13 18.04337 -63.11299 27 ft 2 kts 353°
2026-05-07 03:14 18.04347 -63.11300 27 ft 0 kts 352°